User: anonymous
Location: Cimarron National Grasslands
(37.1250°N, 101.7500°W)
Time: 04:59:50
(UTC-05:00)
Language:

Ariane Rocket - Orbit

View from above orbital plane
View from above orbital plane
View from above satellite
View from above satellite

Ground track
Ground track

The orbit data is extracted from the following two-line orbital elements,

1 23561U 95021B   14105.98591733  .00000387  00000-0  14502-3 0  7429
2 23561 098.6763 071.6230 0008275 091.1686 309.1797 14.37222361994841
Epoch (UTC): 15 April 2014 23:39:43
Eccentricity: 0.0008275
inclination: 98.6763°
perigee height: 762 km
apogee height: 773 km
right ascension of ascending node: 71.6230°
argument of perigee: 91.1686°
revolutions per day: 14.37222361
mean anomaly at epoch: 309.1797°
orbit number at epoch: 99484

The dashed part of the orbit path shows where the satellite is in the earth's shadow,  

DLR